Change the Weather History Date:

Monday, April 8, 2013

  Actual Average Record
Temperature  
Mean Temperature 57 °F 46 °F  
Max Temperature 70 °F 60 °F 87 °F (1988)
Min Temperature 43 °F 32 °F 14 °F (2007)
Degree Days  
Heating Degree Days 8 19  
Cooling Degree Days 0 0  
Growing Degree Days 6 (Base 50)    
Moisture  
Dew Point 52 °F    
Average Humidity 84    
Maximum Humidity 100    
Minimum Humidity 68    
Precipitation  
Precipitation 0.24 in - 0.94 in (1998)
Sea Level Pressure  
Sea Level Pressure 29.64 in    
Wind  
Wind Speed 10 mph (SSE)    
Max Wind Speed 21 mph    
Max Gust Speed 21 mph    
Visibility 7 miles    
Events Thunderstorm    
T = Trace of Precipitation, MM = Missing Value Source: NWS Daily Summary

Daily Weather History Graph

Daily Weather History Graph

Search for Another Location

Airport or City:

Trip Planner

Search our weather history database for the weather conditions in past years. The results will help you decide how hot, cold, wet, or windy it might be!

Date:

Astronomy

Apr. 08, 2013 Rise Set
Actual Time 7:07 AM CDT 8:08 PM CDT
Civil Twilight 6:39 AM CDT 8:36 PM CDT
Nautical Twilight 6:06 AM CDT 9:09 PM CDT
Astronomical Twilight 5:31 AM CDT 9:44 PM CDT
Moon 5:59 AM CDT (4/8) 6:44 PM CDT (4/8)
Length of Visible Light 13h 56m
Length of Day
13h 00m
Waning Crescent, 3% of the Moon is Illuminated
Apr 8
Waning Crescent
Apr 10
New
Apr 18
First Quarter
Apr 25
Full
May 2
Last Quarter

Hourly Weather History & Observations

Time (CDT) Temp. Windchill Dew Point Humidity Pressure Visibility Wind Dir Wind Speed Gust Speed Precip Events Conditions
12:15 AM 44.6 °F 40.2 °F 41.0 °F 87% 29.66 in 10.0 mi SE 8.1 mph - N/A   Clear
12:35 AM 44.6 °F 40.2 °F 42.8 °F 93% 29.66 in 10.0 mi SE 8.1 mph - N/A   Clear
12:55 AM 44.6 °F 40.2 °F 42.8 °F 93% 29.67 in 10.0 mi SSE 8.1 mph - N/A   Clear
1:15 AM 44.6 °F 41.4 °F 42.8 °F 93% 29.67 in 10.0 mi SSE 5.8 mph - N/A   Clear
1:35 AM 44.6 °F 39.7 °F 42.8 °F 93% 29.67 in 10.0 mi SSE 9.2 mph - N/A   Clear
1:55 AM 44.6 °F 40.2 °F 42.8 °F 93% 29.67 in 10.0 mi SSE 8.1 mph - N/A   Clear
2:15 AM 42.8 °F 37.0 °F 41.0 °F 93% 29.67 in 10.0 mi SSE 10.4 mph - N/A   Clear
2:35 AM 44.6 °F 40.7 °F 42.8 °F 93% 29.66 in 10.0 mi South 6.9 mph - N/A   Partly Cloudy
2:55 AM 42.8 °F 38.6 °F 42.8 °F 100% 29.65 in 10.0 mi South 6.9 mph - N/A   Clear
3:15 AM 44.6 °F 40.7 °F 44.6 °F 100% 29.65 in 9.0 mi SSE 6.9 mph - N/A   Mostly Cloudy
3:35 AM 46.4 °F 42.4 °F 44.6 °F 93% 29.65 in 8.0 mi South 8.1 mph - N/A   Overcast
3:55 AM 46.4 °F 42.9 °F 46.4 °F 100% 29.65 in 8.0 mi SSW 6.9 mph - N/A   Overcast
4:15 AM 46.4 °F 42.9 °F 46.4 °F 100% 29.65 in 10.0 mi SSW 6.9 mph - N/A   Overcast
4:35 AM 48.2 °F - 46.4 °F 93% 29.66 in 10.0 mi SSW 6.9 mph - N/A   Overcast
4:55 AM 48.2 °F - 46.4 °F 93% 29.65 in 3.0 mi SW 5.8 mph - N/A   Overcast
5:15 AM 48.2 °F - 46.4 °F 93% 29.66 in 1.0 mi SW 4.6 mph - N/A   Overcast
5:35 AM 48.2 °F - 48.2 °F 100% 29.65 in 0.5 mi SW 4.6 mph - N/A   Overcast
5:55 AM 48.2 °F - 48.2 °F 100% 29.65 in 0.5 mi SW 5.8 mph - N/A   Overcast
6:15 AM 48.2 °F - 48.2 °F 100% 29.65 in 0.5 mi SSW 8.1 mph - N/A   Overcast
6:35 AM 48.2 °F - 48.2 °F 100% 29.65 in 0.5 mi SW 8.1 mph - N/A   Overcast
6:55 AM 48.2 °F - 48.2 °F 100% 29.65 in 0.5 mi SSW 4.6 mph - N/A   Overcast
7:15 AM 48.2 °F - 48.2 °F 100% 29.65 in 0.2 mi South 8.1 mph - N/A   Overcast
7:35 AM 48.2 °F - 48.2 °F 100% 29.65 in 0.2 mi South 9.2 mph - N/A   Overcast
7:55 AM 48.2 °F - 48.2 °F 100% 29.65 in 0.2 mi SSW 6.9 mph - N/A   Overcast
8:15 AM 48.2 °F - 48.2 °F 100% 29.66 in 0.2 mi South 8.1 mph - N/A   Overcast
8:35 AM 48.2 °F - 46.4 °F 93% 29.66 in 0.2 mi SSW 9.2 mph - N/A   Overcast
8:55 AM 48.2 °F - 48.2 °F 100% 29.66 in 0.2 mi SSW 6.9 mph - N/A   Overcast
9:15 AM 48.2 °F - 48.2 °F 100% 29.66 in 0.2 mi SW 4.6 mph - N/A   Overcast
9:35 AM 48.2 °F - 46.4 °F 93% 29.66 in 0.2 mi SSW 4.6 mph - N/A   Overcast
9:55 AM 50.0 °F - 48.2 °F 94% 29.67 in 0.2 mi WSW 3.5 mph - N/A   Overcast
10:15 AM 50.0 °F - 50.0 °F 100% 29.67 in 0.5 mi SW 4.6 mph - N/A   Overcast
10:35 AM 51.8 °F - 50.0 °F 94% 29.67 in 1.0 mi SW 4.6 mph - N/A   Overcast
10:55 AM 51.8 °F - 51.8 °F 100% 29.67 in 1.5 mi South 5.8 mph - N/A   Overcast
11:15 AM 53.6 °F - 53.6 °F 100% 29.67 in 4.0 mi South 6.9 mph - N/A   Overcast
11:35 AM 55.4 °F - 53.6 °F 94% 29.67 in 9.0 mi SW 4.6 mph - N/A   Overcast
11:55 AM 57.2 °F - 55.4 °F 94% 29.67 in 10.0 mi South 3.5 mph - N/A   Overcast
12:15 PM 57.2 °F - 55.4 °F 94% 29.67 in 10.0 mi South 9.2 mph - N/A   Overcast
12:35 PM 60.8 °F - 55.4 °F 82% 29.67 in 10.0 mi South 6.9 mph - N/A   Overcast
12:55 PM 62.6 °F - 55.4 °F 77% 29.67 in 10.0 mi South 6.9 mph - N/A   Mostly Cloudy
1:15 PM 62.6 °F - 57.2 °F 82% 29.66 in 10.0 mi SSE 8.1 mph - N/A   Mostly Cloudy
1:35 PM 64.4 °F - 57.2 °F 77% 29.66 in 10.0 mi SE 6.9 mph - N/A   Scattered Clouds
1:55 PM 64.4 °F - 57.2 °F 77% 29.65 in 10.0 mi SSE 8.1 mph - N/A   Partly Cloudy
2:15 PM 66.2 °F - 57.2 °F 73% 29.64 in 10.0 mi SSE 10.4 mph - N/A   Clear
2:35 PM 68.0 °F - 57.2 °F 68% 29.64 in 10.0 mi ESE 9.2 mph - N/A   Clear
2:55 PM 68.0 °F - 57.2 °F 68% 29.64 in 10.0 mi ESE 9.2 mph - N/A   Partly Cloudy
3:15 PM 69.8 °F - 59.0 °F 68% 29.63 in 10.0 mi ESE 13.8 mph - N/A   Mostly Cloudy
3:35 PM 68.0 °F - 57.2 °F 68% 29.64 in 10.0 mi SE 15.0 mph - N/A   Overcast
3:55 PM 66.2 °F - 57.2 °F 73% 29.63 in 10.0 mi SE 16.1 mph - N/A   Overcast
4:15 PM 64.4 °F - 57.2 °F 77% 29.64 in 10.0 mi SE 15.0 mph - N/A   Overcast
4:35 PM 62.6 °F - 57.2 °F 82% 29.64 in 10.0 mi SE 15.0 mph - N/A   Overcast
4:55 PM 64.4 °F - 57.2 °F 77% 29.64 in 10.0 mi ESE 15.0 mph - N/A   Overcast
5:15 PM 64.4 °F - 57.2 °F 77% 29.63 in 10.0 mi East 10.4 mph - N/A   Overcast
5:35 PM 66.2 °F - 57.2 °F 73% 29.63 in 10.0 mi ESE 11.5 mph - N/A   Overcast
5:55 PM 66.2 °F - 57.2 °F 73% 29.62 in 10.0 mi East 11.5 mph - N/A   Mostly Cloudy
6:15 PM 64.4 °F - 57.2 °F 77% 29.62 in 10.0 mi East 12.7 mph - N/A   Mostly Cloudy
6:35 PM 64.4 °F - 57.2 °F 77% 29.61 in 10.0 mi East 12.7 mph - N/A   Mostly Cloudy
6:55 PM 64.4 °F - 57.2 °F 77% 29.61 in 10.0 mi East 15.0 mph - N/A   Scattered Clouds
7:15 PM 64.4 °F - 57.2 °F 77% 29.60 in 10.0 mi ENE 16.1 mph - N/A   Mostly Cloudy
7:35 PM 62.6 °F - 57.2 °F 82% 29.61 in 10.0 mi ENE 15.0 mph - N/A   Overcast
7:55 PM 62.6 °F - 57.2 °F 82% 29.61 in 9.0 mi ENE 16.1 mph - N/A   Overcast
8:15 PM 62.6 °F - 57.2 °F 82% 29.61 in 8.0 mi ENE 15.0 mph - N/A   Mostly Cloudy
8:35 PM 60.8 °F - 57.2 °F 88% 29.63 in 10.0 mi ENE 13.8 mph - N/A   Overcast
8:55 PM 60.8 °F - 57.2 °F 88% 29.64 in 9.0 mi NE 15.0 mph - N/A   Overcast
9:15 PM 60.8 °F - 57.2 °F 88% 29.63 in 8.0 mi ENE 21.9 mph 25.3 mph N/A   Overcast
9:35 PM 60.8 °F - 57.2 °F 88% 29.60 in 9.0 mi ENE 19.6 mph 25.3 mph N/A Thunderstorm Thunderstorm
9:55 PM 60.8 °F - 57.2 °F 88% 29.61 in 8.0 mi East 20.7 mph - 0.07 in   Overcast
10:15 PM 60.8 °F - 57.2 °F 88% 29.59 in 5.0 mi East 16.1 mph 26.5 mph N/A Thunderstorm Overcast
10:35 PM 60.8 °F - 57.2 °F 88% 29.60 in 5.0 mi East 17.3 mph 23.0 mph N/A   Mostly Cloudy
10:55 PM 60.8 °F - 57.2 °F 88% 29.60 in 7.0 mi ESE 12.7 mph 20.7 mph N/A   Scattered Clouds
11:15 PM 60.8 °F - 57.2 °F 88% 29.59 in 10.0 mi ESE 18.4 mph - N/A   Partly Cloudy
11:35 PM 60.8 °F - 57.2 °F 88% 29.60 in 9.0 mi East 12.7 mph - N/A   Scattered Clouds
11:55 PM 60.8 °F - 57.2 °F 88% 29.60 in 9.0 mi NNE 9.2 mph 16.1 mph N/A   Mostly Cloudy